Location: ??????????
(42.1626°N, 44.1160°E)
Time: 10:46:15
(UTC+00:00)

Cosmos 1339 Rocket - Pass Details

Date: 03 March 2021
Orbit: 943 x 1005 km, 82.9° (Epoch: 20 April)

Event Time Altitude Azimuth Distance (km) Brightness Sun altitude
Rises 16:34:51 0° 353° (N) 3,653 7.7 -19.1°
Reaches altitude 10° 16:37:22 10° 356° (N) 2,711 7.0 -19.5°
Maximum altitude 16:43:34 75° 81° (E) 1,013 4.4 -20.7°
Drops below altitude 10° 16:49:51 10° 167° (SSE) 2,737 6.6 -21.8°
Enters shadow 16:51:38 - 169° (SSE) 3,404 7.1 -22.1°
